Regional Weather Roundup
Issued by NWS

Home | Current Version | Previous Version | Graphics & Text | Print | Product List | Glossary On
Versions: 1 2 3 4 5 6 7 8 9 10 11 12 13 14 15 16 17 18 19 20 21 22 23 24 25 26 27 28 29 30 31 32 33 34 35 36 37 38 39 40 41 42 43 44 45 46 47 48 49 50
000
ASUS43 KTOP 210359
RWRKS

WEATHER ROUNDUP FOR KANSAS
NATIONAL WEATHER SERVICE GOODLAND KS
1000 PM CST MON NOV 20 2017

NOTE:  "FAIR" INDICATES FEW OR NO CLOUDS BELOW 12,000 FEET WITH NO
SIGNIFICANT WEATHER AND/OR OBSTRUCTIONS TO VISIBILITY.

KSZ001>006-013>018-027>032-041>047-210500-
NORTHWEST KANSAS

CITY           SKY/WX    TMP DP  RH WIND       PRES   REMARKS
GOODLAND       CLOUDY    52  18  26 NE5       29.81R
HAYS           CLOUDY    49  21  33 W6        29.75S
HILL CITY      CLOUDY    51  23  33 W7        29.76R
RUSSELL        CLOUDY    50  23  34 S10       29.73S
$$

KSZ061>065-074>080-084>089-210500-
SOUTHWEST KANSAS

CITY           SKY/WX    TMP DP  RH WIND       PRES   REMARKS
DODGE CITY     CLOUDY    48  18  30 SW12      29.78S
GARDEN CITY    CLOUDY    42  17  36 NW9       29.80R
GREAT BEND     CLOUDY    48  24  39 SW10      29.76S
LIBERAL        CLOUDY    38  19  46 SW9       29.78F
$$

KSZ066>073-081>083-090>101-210500-
SOUTHEAST KANSAS

CITY           SKY/WX    TMP DP  RH WIND       PRES   REMARKS
CHANUTE        CLOUDY    52  30  43 S9        29.86R
COFFEYVILLE    CLOUDY    53  31  42 S14       29.88R
HUTCHINSON     CLOUDY    51  30  44 S12       29.77F
MEDICINE LODGE   N/A     46  29  51 SE8       29.79F
NEWTON         CLOUDY    51  30  44 S20       29.79F
PARSONS        CLOUDY    52  31  44 S8        29.88R
WICHITA INTL   CLOUDY    51  31  46 S12       29.80F
WICHITA JABRA  CLOUDY    53  31  42 S15       29.80F
WICHITA MCCONL CLOUDY    53  29  40 SW13      29.81F
WINFIELD       CLOUDY    51  30  44 S8        29.85S
$$

KSZ007>012-019>026-033>040-048>060-102>105-210500-
NORTHEAST KANSAS

CITY           SKY/WX    TMP DP  RH WIND       PRES   REMARKS
CONCORDIA      CLOUDY    53  24  32 SW15      29.69S
EMPORIA        CLOUDY    52  29  41 S16       29.78F
LAWRENCE       CLEAR     54  30  40 VRB7      29.76S
MANHATTAN      PTCLDY    55  29  36 SW16      29.72S
OLATHE IND     CLEAR     51  31  46 S16       29.78S
OLATHE EXE     CLEAR     49  31  49 S12       29.77F
SALINA         CLOUDY    55  27  34 S18       29.73S
TOPEKA BILLARD PTCLDY    56  30  37 SW12      29.74S
TOPEKA FORBES  PTCLDY    56  30  37 SW21G29   29.73S
$$




USA.gov is the U.S. government's official web portal to all federal, state and local government web resources and services.